Flag for U.S.A. Weather past 2 weeks in Citrus Heights, California, U.S.A.

Now
59 °F

Clear.


Feels Like: 59 °F
Forecast: 63 / 96 °F
Wind: No wind

Location: Mather Field

Current Time: Sep 1, 2014 at 6:46:19 AM

Latest Report: Sep 1, 2014 at 5:53 AM


Visibility: 10 mi

Pressure: 29.80 "Hg

Humidity: 77%

Dew point: 52 °F

Location of Citrus HeightsLocation

Historic Weather in Citrus Heights — Graph

°F

Citrus Heights temperature yesterday

Maximum temperature yesterday: 93 °F (at 4:55 PM)
Minimum temperature yesterday: 59 °F (at 4:45 AM)
Average temperature yesterday: 81 °F

Past Weeks' High & Low Weather Summary

 TemperatureHumidityPressure
High97 °F (Aug 28, 5:45 PM)100% (Aug 18, 4:55 AM)30.05 "Hg (Aug 18, 4:55 AM)
Low54 °F (Aug 18, 6:50 AM)15% (Aug 17, 5:46 PM)29.72 "Hg (Aug 18, 5:48 PM)
Average74 °F56%29.87 "Hg
* Reported Aug 17 5:50 AM — Sep 1 5:53 AM, Citrus Heights, Weather by CustomWeather, © 2014

Note: Actual official high and low records may vary slightly from our data, if they occured in-between our weather recording intervals... More about our weather records

Advertising

Citrus Heights weather history for previous 24 hours

 ConditionsComfort  
Time TempWeatherWind HumidityBarometerVisibility
5:53 AM
Sep 1
59 °FClear.No wind77%29.80 "Hg10 mi
4:55 AM63 °FClear.3 mph64%29.80 "Hg10 mi
8:50 PM
Aug 31
77 °FClear.No wind44%29.78 "Hg10 mi
7:50 PM84 °FSunny.No wind35%29.77 "Hg10 mi
6:55 PM91 °FSunny.5 mph23%29.76 "Hg10 mi
5:55 PM93 °FSunny.5 mph20%29.77 "Hg10 mi
4:55 PM93 °FSunny.5 mph19%29.78 "Hg10 mi
3:45 PM91 °FSunny.7 mph24%29.81 "Hg10 mi
2:45 PM90 °FSunny.6 mph26%29.83 "Hg10 mi
1:45 PM86 °FSunny.3 mph31%29.85 "Hg10 mi
12:50 PM84 °FSunny.No wind35%29.87 "Hg10 mi
11:50 AM81 °FSunny.6 mph39%29.89 "Hg10 mi
10:49 AM75 °FSunny.3 mph47%29.89 "Hg10 mi
9:45 AM73 °FSunny.6 mph53%29.90 "Hg10 mi
8:45 AM70 °FSunny.7 mph60%29.89 "Hg10 mi
7:47 AM66 °FSunny.7 mph64%29.88 "Hg10 mi
Weather by CustomWeather, © 2014

See weather overviewHow to use our weather pages